Klamath Falls, OR

9:50 PM PDT on September 19, 2017 (GMT -0700)
Klamath Falls International

Weather History for KLMT - November, 2011

Change the Weather History Date:

Thursday, November 24, 2011

  Actual Average Record
Temperature  
Mean Temperature 39 °F 33 °F  
Max Temperature 45 °F 42 °F 67 °F (1995)
Min Temperature 33 °F 23 °F -4 °F (2010)
Degree Days  
Heating Degree Days 26 32  
Month to date heating degree days 728 687  
Since 1 July heating degree days 1513 1603  
Cooling Degree Days 0 0  
Month to date cooling degree days 0 0  
Year to date cooling degree days 104 169  
Moisture  
Dew Point 34 °F    
Average Humidity 89    
Maximum Humidity 100    
Minimum Humidity 65    
Precipitation  
Precipitation 0.07 in 0.07 in 0.78 in (1979)
Month to date precipitation 0.44 1.71  
Year to date precipitation 6.58 13.03  
Sea Level Pressure  
Sea Level Pressure 29.89 in    
Wind  
Wind Speed 6 mph (SSW)    
Max Wind Speed 14 mph    
Max Gust Speed 18 mph    
Visibility 9 miles    
Events Rain , Snow    
T = Trace of Precipitation, MM = Missing Value Source: NWS Daily Summary

Daily Weather History Graph

Daily Weather History Graph

Search for Another Location

Airport or City:

Trip Planner

Search our weather history database for the weather conditions in past years. The results will help you decide how hot, cold, wet, or windy it might be!

Date:

Astronomy

Nov. 24, 2011 Rise Set
Actual Time 7:07 AM PST 4:39 PM PST
Civil Twilight 6:37 AM PST 5:09 PM PST
Nautical Twilight 6:02 AM PST 5:44 PM PST
Astronomical Twilight 5:29 AM PST 6:17 PM PST
Moon 6:32 AM PST (11/24) 4:13 PM PST (11/24)
Length of Visible Light 10h 32m
Length of Day
9h 31m
Waning Crescent, 0% of the Moon is Illuminated
Nov 24
Waning Crescent
Nov 24
New
Dec 2
First Quarter
Dec 10
Full
Dec 17
Last Quarter

Hourly Weather History & Observations

Time (PST) Temp. Windchill Dew Point Humidity Pressure Visibility Wind Dir Wind Speed Gust Speed Precip Events Conditions
12:09 AM 33.8 °F - 33.8 °F 100% 29.83 in 6.0 mi Calm Calm - 0.01 in Snow Light Snow
12:17 AM 33.8 °F 29.6 °F 33.8 °F 100% 29.82 in 5.0 mi NNE 4.6 mph - 0.02 in Snow Light Snow
12:36 AM 33.8 °F - 33.8 °F 100% 29.82 in 6.0 mi Calm Calm - 0.03 in Snow Light Snow
12:53 AM 33.1 °F - 33.1 °F 100% 29.82 in 6.0 mi Calm Calm - 0.03 in Rain Light Rain
1:13 AM 33.8 °F - 33.8 °F 100% 29.81 in 5.0 mi Calm Calm - 0.01 in Snow Light Snow
1:28 AM 33.8 °F - 33.8 °F 100% 29.81 in 9.0 mi Calm Calm - 0.01 in Rain Light Rain
1:42 AM 33.8 °F - 33.8 °F 100% 29.82 in 8.0 mi Calm Calm - 0.01 in Rain Light Rain
1:53 AM 34.0 °F 31.0 °F 34.0 °F 100% 29.82 in 9.0 mi SE 3.5 mph - 0.01 in Rain Light Rain
2:06 AM 35.6 °F 29.2 °F 33.8 °F 93% 29.81 in 10.0 mi SSE 8.1 mph - 0.01 in Rain Light Rain
2:53 AM 35.1 °F 29.3 °F 34.0 °F 96% 29.82 in 10.0 mi SSE 6.9 mph - 0.04 in Rain Light Rain
3:53 AM 35.1 °F 30.1 °F 34.0 °F 96% 29.83 in 10.0 mi South 5.8 mph - 0.00 in Rain Light Rain
4:04 AM 35.6 °F 30.7 °F 33.8 °F 93% 29.82 in 10.0 mi South 5.8 mph - N/A   Overcast
4:53 AM 35.1 °F 31.0 °F 34.0 °F 96% 29.84 in 10.0 mi South 4.6 mph - 0.00 in   Overcast
5:53 AM 35.1 °F 32.2 °F 34.0 °F 96% 29.86 in 9.0 mi WSW 3.5 mph - N/A   Overcast
6:00 AM 35.6 °F 32.8 °F 35.6 °F 100% 29.85 in 8.0 mi SSW 3.5 mph - N/A   Overcast
6:06 AM 35.6 °F 30.7 °F 33.8 °F 93% 29.85 in 10.0 mi South 5.8 mph - 0.00 in Rain Light Rain
6:47 AM 33.8 °F 28.6 °F 33.8 °F 100% 29.87 in 10.0 mi SSE 5.8 mph - 0.00 in   Overcast
6:53 AM 34.0 °F 28.8 °F 34.0 °F 100% 29.88 in 10.0 mi SSE 5.8 mph - 0.00 in   Overcast
7:53 AM 35.1 °F 30.1 °F 34.0 °F 96% 29.88 in 10.0 mi SE 5.8 mph - N/A   Overcast
8:53 AM 37.0 °F 31.0 °F 36.0 °F 96% 29.89 in 10.0 mi South 8.1 mph - N/A   Mostly Cloudy
9:53 AM 39.0 °F - 37.0 °F 93% 29.92 in 10.0 mi Calm Calm - N/A   Mostly Cloudy
10:00 AM 39.2 °F - 37.4 °F 93% 29.91 in 10.0 mi Calm Calm - N/A   Overcast
11:53 AM 44.1 °F 38.6 °F 34.0 °F 68% 29.91 in 10.0 mi SW 10.4 mph - N/A   Scattered Clouds
12:53 PM 45.0 °F 40.1 °F 35.1 °F 68% 29.90 in 10.0 mi WSW 9.2 mph - N/A   Scattered Clouds
1:53 PM 45.0 °F 40.1 °F 35.1 °F 68% 29.91 in 10.0 mi WNW 9.2 mph - N/A   Mostly Cloudy
2:53 PM 44.1 °F 40.8 °F 34.0 °F 68% 29.92 in 10.0 mi WNW 5.8 mph - N/A   Mostly Cloudy
3:53 PM 43.0 °F 37.7 °F 32.0 °F 65% 29.93 in 10.0 mi West 9.2 mph - N/A   Mostly Cloudy
4:53 PM 43.0 °F 38.8 °F 33.1 °F 68% 29.94 in 10.0 mi West 6.9 mph - N/A   Overcast
5:22 PM 42.8 °F 37.5 °F 33.8 °F 70% 29.95 in 10.0 mi West 9.2 mph - 0.00 in Rain Light Rain
5:53 PM 41.0 °F 35.8 °F 32.0 °F 70% 29.96 in 10.0 mi WSW 8.1 mph - 0.00 in Rain Light Rain
6:53 PM 39.9 °F 35.1 °F 32.0 °F 73% 29.99 in 10.0 mi SW 6.9 mph - 0.00 in Rain Light Rain
7:17 PM 37.4 °F 30.3 °F 33.8 °F 87% 29.95 in 10.0 mi SSE 10.4 mph - 0.00 in   Mostly Cloudy
7:53 PM 39.0 °F 32.8 °F 33.1 °F 79% 29.99 in 10.0 mi South 9.2 mph - 0.00 in   Mostly Cloudy
8:53 PM 37.4 °F 32.8 °F 35.6 °F 93% 29.98 in 10.0 mi WSW 5.8 mph - N/A   Overcast
9:02 PM 37.4 °F 32.1 °F 35.6 °F 93% 29.98 in 10.0 mi SSW 6.9 mph - 0.00 in Rain Light Rain
9:53 PM 37.0 °F 33.3 °F 35.1 °F 93% 30.02 in 10.0 mi West 4.6 mph - 0.00 in Rain Light Rain
10:53 PM 37.4 °F - 35.6 °F 93% 30.03 in 10.0 mi Calm Calm - N/A   Overcast